,,PressureMeas_1m,,PRMeasQMR101_1,,RHStat155_1m_1,,SRMeasQMS101R_1m,,TAStat155_1m_1,,GenWind_1,,GenWind_1,
2019-08-23, 00:00:06,VALID,918.934,VALID,0.0,VALID,99.641,VALID,-0.009,VALID,20.647,INVALID,360.0,VALID,0.0,
2019-08-23, 00:01:06,VALID,918.897,VALID,0.0,VALID,99.642,VALID,-0.019,VALID,20.629,INVALID,360.0,VALID,0.0,
2019-08-23, 00:02:06,VALID,918.894,VALID,0.0,VALID,99.643,VALID,-0.024,VALID,20.612,INVALID,360.0,VALID,0.0,
2019-08-23, 00:03:06,VALID,918.868,VALID,0.0,VALID,99.646,VALID,-0.022,VALID,20.623,INVALID,360.0,VALID,0.0,
2019-08-23, 00:04:06,VALID,918.871,VALID,0.0,VALID,99.661,VALID,-0.007,VALID,20.64,INVALID,360.0,VALID,0.0,
2019-08-23, 00:05:06,VALID,918.841,VALID,0.0,VALID,99.659,VALID,0.004,VALID,20.646,INVALID,360.0,VALID,0.0,
2019-08-23, 00:06:06,VALID,918.841,VALID,0.0,VALID,99.656,VALID,0.029,VALID,20.635,INVALID,360.0,VALID,0.0,
2019-08-23, 00:07:06,VALID,918.818,VALID,0.0,VALID,99.654,VALID,0.03,VALID,20.601,INVALID,360.0,VALID,0.0,
2019-08-23, 00:08:06,VALID,918.791,VALID,0.0,VALID,99.638,VALID,0.011,VALID,20.569,INVALID,360.0,VALID,0.0,
2019-08-23, 00:09:06,VALID,918.783,VALID,0.0,VALID,99.628,VALID,0.013,VALID,20.554,INVALID,360.0,VALID,0.0,
2019-08-23, 00:10:06,VALID,918.807,VALID,0.0,VALID,99.644,VALID,0.012,VALID,20.53,INVALID,360.0,VALID,0.0,
2019-08-23, 00:11:06,VALID,918.789,VALID,0.0,VALID,99.652,VALID,0.019,VALID,20.482,INVALID,360.0,VALID,0.0,
2019-08-23, 00:12:06,VALID,918.801,VALID,0.0,VALID,99.646,VALID,0.014,VALID,20.452,INVALID,360.0,VALID,0.0,
2019-08-23, 00:13:06,VALID,918.778,VALID,0.0,VALID,99.662,VALID,0.016,VALID,20.444,INVALID,360.0,VALID,0.0,
2019-08-23, 00:14:06,VALID,918.77,VALID,0.0,VALID,99.661,VALID,0.021,VALID,20.438,INVALID,360.0,VALID,0.0,
2019-08-23, 00:15:06,VALID,918.789,VALID,0.0,VALID,99.656,VALID,0.018,VALID,20.401,INVALID,360.0,VALID,0.0,
2019-08-23, 00:16:06,VALID,918.778,VALID,0.0,VALID,99.65,VALID,0.018,VALID,20.37,INVALID,360.0,VALID,0.0,
2019-08-23, 00:17:06,VALID,918.765,VALID,0.0,VALID,99.651,VALID,0.001,VALID,20.374,INVALID,360.0,VALID,0.0,
2019-08-23, 00:18:06,VALID,918.757,VALID,0.0,VALID,99.667,VALID,0.021,VALID,20.362,INVALID,360.0,VALID,0.0,
2019-08-23, 00:19:06,VALID,918.726,VALID,0.0,VALID,99.662,VALID,0.007,VALID,20.313,INVALID,360.0,VALID,0.0,
2019-08-23, 00:20:06,VALID,918.693,VALID,0.0,VALID,99.637,VALID,0.02,VALID,20.258,INVALID,360.0,VALID,0.0,
2019-08-23, 00:21:06,VALID,918.681,VALID,0.0,VALID,99.648,VALID,0.021,VALID,20.264,INVALID,360.0,VALID,0.0,
2019-08-23, 00:22:06,VALID,918.672,VALID,0.0,VALID,99.655,VALID,0.005,VALID,20.272,INVALID,360.0,VALID,0.0,
2019-08-23, 00:23:06,VALID,918.664,VALID,0.0,VALID,99.649,VALID,0.015,VALID,20.255,INVALID,360.0,VALID,0.0,
2019-08-23, 00:24:06,VALID,918.642,VALID,0.0,VALID,99.655,VALID,0.014,VALID,20.259,INVALID,360.0,VALID,0.0,
2019-08-23, 00:25:06,VALID,918.608,VALID,0.0,VALID,99.675,VALID,0.022,VALID,20.266,INVALID,360.0,VALID,0.0,
2019-08-23, 00:26:06,VALID,918.584,VALID,0.0,VALID,99.671,VALID,0.026,VALID,20.291,INVALID,360.0,VALID,0.0,
2019-08-23, 00:27:06,VALID,918.583,VALID,0.0,VALID,99.679,VALID,0.023,VALID,20.327,INVALID,360.0,VALID,0.0,
2019-08-23, 00:28:06,VALID,918.576,VALID,0.0,VALID,99.671,VALID,0.012,VALID,20.322,INVALID,360.0,VALID,0.0,
2019-08-23, 00:29:06,VALID,918.57,VALID,0.0,VALID,99.676,VALID,0.007,VALID,20.256,INVALID,360.0,VALID,0.0,
2019-08-23, 00:30:06,VALID,918.545,VALID,0.0,VALID,99.659,VALID,0.003,VALID,20.24,INVALID,360.0,VALID,0.0,
2019-08-23, 00:31:06,VALID,918.513,VALID,0.0,VALID,99.689,VALID,0.009,VALID,20.254,INVALID,360.0,VALID,0.0,
2019-08-23, 00:32:06,VALID,918.487,VALID,0.0,VALID,99.675,VALID,0.031,VALID,20.289,INVALID,360.0,VALID,0.0,
2019-08-23, 00:33:06,VALID,918.471,VALID,0.0,VALID,99.684,VALID,0.02,VALID,20.326,INVALID,360.0,VALID,0.0,
2019-08-23, 00:34:06,VALID,918.441,VALID,0.0,VALID,99.692,VALID,0.011,VALID,20.38,INVALID,360.0,VALID,0.0,
2019-08-23, 00:35:06,VALID,918.451,VALID,0.0,VALID,99.688,VALID,-0.005,VALID,20.411,INVALID,360.0,VALID,0.0,
2019-08-23, 00:36:06,VALID,918.43,VALID,0.0,VALID,99.693,VALID,0.028,VALID,20.433,INVALID,360.0,VALID,0.0,
2019-08-23, 00:37:06,VALID,918.439,VALID,0.0,VALID,99.699,VALID,0.022,VALID,20.46,INVALID,360.0,VALID,0.0,
2019-08-23, 00:38:06,VALID,918.418,VALID,0.0,VALID,99.699,VALID,0.036,VALID,20.472,INVALID,360.0,VALID,0.0,
2019-08-23, 00:39:06,VALID,918.388,VALID,0.0,VALID,99.712,VALID,0.012,VALID,20.495,INVALID,360.0,VALID,0.0,
2019-08-23, 00:40:06,VALID,918.386,VALID,0.0,VALID,99.697,VALID,0.015,VALID,20.514,INVALID,360.0,VALID,0.0,
2019-08-23, 00:41:06,VALID,918.388,VALID,0.0,VALID,99.692,VALID,0.019,VALID,20.478,INVALID,360.0,VALID,0.0,
2019-08-23, 00:42:06,VALID,918.402,VALID,0.0,VALID,99.684,VALID,0.029,VALID,20.453,INVALID,360.0,VALID,0.0,
2019-08-23, 00:43:06,VALID,918.401,VALID,0.0,VALID,99.717,VALID,0.02,VALID,20.46,INVALID,360.0,VALID,0.0,
2019-08-23, 00:44:06,VALID,918.405,VALID,0.0,VALID,99.707,VALID,0.029,VALID,20.459,INVALID,360.0,VALID,0.0,
2019-08-23, 00:45:06,VALID,918.415,VALID,0.0,VALID,99.69,VALID,0.022,VALID,20.472,INVALID,360.0,VALID,0.0,
2019-08-23, 00:46:06,VALID,918.409,VALID,0.0,VALID,99.7,VALID,0.012,VALID,20.439,INVALID,360.0,VALID,0.0,
2019-08-23, 00:47:06,VALID,918.429,VALID,0.0,VALID,99.716,VALID,0.012,VALID,20.434,VALID,62.0,VALID,0.0,
2019-08-23, 00:48:06,VALID,918.446,VALID,0.0,VALID,99.709,VALID,0.019,VALID,20.406,INVALID,360.0,VALID,0.0,
2019-08-23, 00:49:06,VALID,918.434,VALID,0.0,VALID,99.689,VALID,0.003,VALID,20.403,INVALID,360.0,VALID,0.0,
2019-08-23, 00:50:06,VALID,918.43,VALID,0.0,VALID,99.715,VALID,0.004,VALID,20.42,INVALID,360.0,VALID,0.0,
2019-08-23, 00:51:06,VALID,918.4,VALID,0.0,VALID,99.709,VALID,0.03,VALID,20.398,INVALID,360.0,VALID,0.0,
2019-08-23, 00:52:06,VALID,918.403,VALID,0.0,VALID,99.707,VALID,0.013,VALID,20.401,INVALID,360.0,VALID,0.0,
2019-08-23, 00:53:06,VALID,918.396,VALID,0.0,VALID,99.712,VALID,0.012,VALID,20.451,INVALID,360.0,VALID,0.0,
2019-08-23, 00:54:06,VALID,918.389,VALID,0.0,VALID,99.71,VALID,0.014,VALID,20.444,INVALID,360.0,VALID,0.0,
2019-08-23, 00:55:06,VALID,918.35,VALID,0.0,VALID,99.709,VALID,0.027,VALID,20.485,INVALID,360.0,VALID,0.0,
2019-08-23, 00:56:06,VALID,918.354,VALID,0.0,VALID,99.721,VALID,0.009,VALID,20.491,INVALID,360.0,VALID,0.0,
2019-08-23, 00:57:06,VALID,918.329,VALID,0.0,VALID,99.713,VALID,0.017,VALID,20.423,INVALID,360.0,VALID,0.0,
2019-08-23, 00:58:06,VALID,918.326,VALID,0.0,VALID,99.71,VALID,0.024,VALID,20.443,INVALID,360.0,VALID,0.0,
2019-08-23, 00:59:06,VALID,918.34,VALID,0.0,VALID,99.722,VALID,0.003,VALID,20.471,INVALID,360.0,VALID,0.0,
2019-08-23, 01:00:06,VALID,918.335,VALID,0.0,VALID,99.712,VALID,0.018,VALID,20.467,INVALID,360.0,VALID,0.0,
2019-08-23, 01:01:06,VALID,918.354,VALID,0.0,VALID,99.698,VALID,0.01,VALID,20.425,INVALID,360.0,VALID,0.0,
2019-08-23, 01:02:06,VALID,918.358,VALID,0.0,VALID,99.708,VALID,0.014,VALID,20.345,INVALID,360.0,VALID,0.0,
2019-08-23, 01:03:06,VALID,918.364,VALID,0.0,VALID,99.689,VALID,0.021,VALID,20.326,INVALID,360.0,VALID,0.0,
2019-08-23, 01:04:06,VALID,918.369,VALID,0.0,VALID,99.702,VALID,0.012,VALID,20.309,INVALID,360.0,VALID,0.0,
2019-08-23, 01:05:06,VALID,918.354,VALID,0.0,VALID,99.716,VALID,0.011,VALID,20.291,INVALID,360.0,VALID,0.0,
2019-08-23, 01:06:06,VALID,918.343,VALID,0.0,VALID,99.717,VALID,0.007,VALID,20.282,VALID,63.0,VALID,0.0,
2019-08-23, 01:07:06,VALID,918.347,VALID,0.0,VALID,99.704,VALID,0.017,VALID,20.285,VALID,63.0,VALID,0.0,
2019-08-23, 01:08:06,VALID,918.355,VALID,0.0,VALID,99.704,VALID,0.021,VALID,20.281,INVALID,360.0,VALID,0.0,
2019-08-23, 01:09:06,VALID,918.378,VALID,0.0,VALID,99.732,VALID,0.009,VALID,20.292,INVALID,360.0,VALID,0.0,
2019-08-23, 01:10:06,VALID,918.397,VALID,0.0,VALID,99.712,VALID,0.005,VALID,20.275,INVALID,360.0,VALID,0.0,
2019-08-23, 01:11:06,VALID,918.431,VALID,0.0,VALID,99.711,VALID,0.006,VALID,20.281,INVALID,360.0,VALID,0.0,
2019-08-23, 01:12:06,VALID,918.446,VALID,0.0,VALID,99.725,VALID,0.008,VALID,20.331,INVALID,360.0,VALID,0.0,
2019-08-23, 01:13:06,VALID,918.463,VALID,0.0,VALID,99.722,VALID,0.01,VALID,20.37,INVALID,360.0,VALID,0.0,
2019-08-23, 01:14:06,VALID,918.467,VALID,0.0,VALID,99.718,VALID,0.019,VALID,20.324,INVALID,360.0,VALID,0.0,
2019-08-23, 01:15:06,VALID,918.441,VALID,0.0,VALID,99.713,VALID,0.005,VALID,20.308,INVALID,360.0,VALID,0.0,
2019-08-23, 01:16:06,VALID,918.424,VALID,0.0,VALID,99.711,VALID,0.01,VALID,20.317,INVALID,360.0,VALID,0.0,
2019-08-23, 01:17:06,VALID,918.387,VALID,0.0,VALID,99.718,VALID,-0.003,VALID,20.311,INVALID,360.0,VALID,0.0,
2019-08-23, 01:18:06,VALID,918.403,VALID,0.0,VALID,99.721,VALID,0.003,VALID,20.301,INVALID,360.0,VALID,0.0,
2019-08-23, 01:19:06,VALID,918.355,VALID,0.0,VALID,99.72,VALID,-0.003,VALID,20.326,INVALID,360.0,VALID,0.0,
2019-08-23, 01:20:06,VALID,918.349,VALID,0.0,VALID,99.719,VALID,-0.015,VALID,20.333,INVALID,360.0,VALID,0.0,
2019-08-23, 01:21:06,VALID,918.334,VALID,0.0,VALID,99.719,VALID,-0.005,VALID,20.367,INVALID,360.0,VALID,0.0,
2019-08-23, 01:22:06,VALID,918.327,VALID,0.0,VALID,99.722,VALID,-0.023,VALID,20.348,INVALID,360.0,VALID,0.0,
2019-08-23, 01:23:06,VALID,918.317,VALID,0.0,VALID,99.705,VALID,-0.012,VALID,20.265,INVALID,360.0,VALID,0.0,
2019-08-23, 01:24:06,VALID,918.323,VALID,0.0,VALID,99.71,VALID,0.006,VALID,20.216,INVALID,360.0,VALID,0.0,
2019-08-23, 01:25:06,VALID,918.298,VALID,0.0,VALID,99.72,VALID,-0.004,VALID,20.192,INVALID,360.0,VALID,0.0,
2019-08-23, 01:26:06,VALID,918.289,VALID,0.0,VALID,99.725,VALID,0.007,VALID,20.174,INVALID,360.0,VALID,0.0,
2019-08-23, 01:27:06,VALID,918.268,VALID,0.0,VALID,99.715,VALID,0.006,VALID,20.165,INVALID,360.0,VALID,0.0,
2019-08-23, 01:28:06,VALID,918.263,VALID,0.0,VALID,99.732,VALID,0.002,VALID,20.15,INVALID,360.0,VALID,0.0,
2019-08-23, 01:29:06,VALID,918.272,VALID,0.0,VALID,99.731,VALID,-0.001,VALID,20.151,INVALID,360.0,VALID,0.0,
2019-08-23, 01:30:06,VALID,918.267,VALID,0.0,VALID,99.731,VALID,-0.0,VALID,20.136,INVALID,360.0,VALID,0.0,
2019-08-23, 01:31:06,VALID,918.295,VALID,0.0,VALID,99.719,VALID,-0.005,VALID,20.121,INVALID,360.0,VALID,0.0,
2019-08-23, 01:32:06,VALID,918.29,VALID,0.0,VALID,99.739,VALID,-0.018,VALID,20.109,INVALID,360.0,VALID,0.0,
2019-08-23, 01:33:06,VALID,918.281,VALID,0.0,VALID,99.73,VALID,-0.001,VALID,20.121,INVALID,360.0,VALID,0.0,
2019-08-23, 01:34:06,VALID,918.274,VALID,0.0,VALID,99.731,VALID,0.009,VALID,20.122,INVALID,360.0,VALID,0.0,
2019-08-23, 01:35:06,VALID,918.262,VALID,0.0,VALID,99.745,VALID,-0.007,VALID,20.114,INVALID,360.0,VALID,0.0,
2019-08-23, 01:36:06,VALID,918.243,VALID,0.0,VALID,99.741,VALID,-0.0,VALID,20.1,INVALID,360.0,VALID,0.0,
2019-08-23, 01:37:06,VALID,918.217,VALID,0.0,VALID,99.732,VALID,0.019,VALID,20.123,INVALID,360.0,VALID,0.0,
2019-08-23, 01:38:06,VALID,918.195,VALID,0.0,VALID,99.747,VALID,-0.0,VALID,20.103,INVALID,360.0,VALID,0.0,
2019-08-23, 01:39:06,VALID,918.197,VALID,0.0,VALID,99.727,VALID,0.011,VALID,20.1,INVALID,360.0,VALID,0.0,
2019-08-23, 01:40:06,VALID,918.177,VALID,0.0,VALID,99.744,VALID,0.006,VALID,20.07,INVALID,360.0,VALID,0.0,
2019-08-23, 01:41:06,VALID,918.175,VALID,0.0,VALID,99.732,VALID,0.001,VALID,20.061,INVALID,360.0,VALID,0.0,
2019-08-23, 01:42:06,VALID,918.171,VALID,0.0,VALID,99.744,VALID,0.005,VALID,20.06,INVALID,360.0,VALID,0.0,
2019-08-23, 01:43:06,VALID,918.163,VALID,0.0,VALID,99.743,VALID,0.013,VALID,20.079,INVALID,360.0,VALID,0.0,
2019-08-23, 01:44:06,VALID,918.143,VALID,0.0,VALID,99.745,VALID,0.01,VALID,20.116,INVALID,360.0,VALID,0.0,
2019-08-23, 01:45:06,VALID,918.113,VALID,0.0,VALID,99.75,VALID,0.013,VALID,20.16,INVALID,360.0,VALID,0.0,
2019-08-23, 01:46:06,VALID,918.084,VALID,0.0,VALID,99.764,VALID,0.015,VALID,20.198,INVALID,360.0,VALID,0.0,
2019-08-23, 01:47:06,VALID,918.089,VALID,0.0,VALID,99.741,VALID,0.013,VALID,20.219,INVALID,360.0,VALID,0.0,
2019-08-23, 01:48:06,VALID,918.097,VALID,0.0,VALID,99.747,VALID,0.009,VALID,20.225,INVALID,360.0,VALID,0.0,
2019-08-23, 01:49:06,VALID,918.119,VALID,0.0,VALID,99.754,VALID,-0.003,VALID,20.255,INVALID,360.0,VALID,0.0,
2019-08-23, 01:50:06,VALID,918.117,VALID,0.0,VALID,99.753,VALID,-0.008,VALID,20.298,INVALID,360.0,VALID,0.0,
2019-08-23, 01:51:06,VALID,918.118,VALID,0.0,VALID,99.753,VALID,-0.01,VALID,20.31,INVALID,360.0,VALID,0.0,
2019-08-23, 01:52:06,VALID,918.106,VALID,0.0,VALID,99.745,VALID,-0.014,VALID,20.303,INVALID,360.0,VALID,0.0,
2019-08-23, 01:53:06,VALID,918.11,VALID,0.0,VALID,99.743,VALID,-0.026,VALID,20.313,INVALID,360.0,VALID,0.0,
2019-08-23, 01:54:06,VALID,918.098,VALID,0.0,VALID,99.741,VALID,-0.014,VALID,20.316,INVALID,360.0,VALID,0.0,
2019-08-23, 01:55:06,VALID,918.095,VALID,0.0,VALID,99.756,VALID,-0.006,VALID,20.304,INVALID,360.0,VALID,0.0,
2019-08-23, 01:56:06,VALID,918.08,VALID,0.0,VALID,99.747,VALID,-0.002,VALID,20.292,INVALID,360.0,VALID,0.0,
2019-08-23, 01:57:06,VALID,918.06,VALID,0.0,VALID,99.743,VALID,-0.022,VALID,20.283,INVALID,360.0,VALID,0.0,
2019-08-23, 01:58:06,VALID,918.046,VALID,0.0,VALID,99.76,VALID,-0.021,VALID,20.283,INVALID,360.0,VALID,0.0,
2019-08-23, 01:59:06,VALID,918.059,VALID,0.0,VALID,99.754,VALID,-0.006,VALID,20.287,INVALID,360.0,VALID,0.0,
2019-08-23, 02:00:06,VALID,918.05,VALID,0.0,VALID,99.752,VALID,-0.008,VALID,20.247,INVALID,360.0,VALID,0.0,
2019-08-23, 02:01:06,VALID,918.036,VALID,0.0,VALID,99.762,VALID,-0.018,VALID,20.254,INVALID,360.0,VALID,0.0,
2019-08-23, 02:02:06,VALID,918.028,VALID,0.0,VALID,99.741,VALID,0.011,VALID,20.234,INVALID,360.0,VALID,0.0,
2019-08-23, 02:03:06,VALID,917.999,VALID,0.0,VALID,99.743,VALID,0.011,VALID,20.224,INVALID,360.0,VALID,0.0,
2019-08-23, 02:04:06,VALID,917.999,VALID,0.0,VALID,99.758,VALID,0.01,VALID,20.212,INVALID,360.0,VALID,0.0,
2019-08-23, 02:05:06,VALID,918.0,VALID,0.0,VALID,99.742,VALID,0.006,VALID,20.208,VALID,64.0,VALID,0.0,
2019-08-23, 02:06:06,VALID,917.999,VALID,0.0,VALID,99.758,VALID,0.003,VALID,20.189,INVALID,360.0,VALID,0.0,
2019-08-23, 02:07:06,VALID,917.982,VALID,0.0,VALID,99.773,VALID,-0.002,VALID,20.174,INVALID,360.0,VALID,0.0,
2019-08-23, 02:08:06,VALID,917.967,VALID,0.0,VALID,99.745,VALID,-0.014,VALID,20.152,INVALID,360.0,VALID,0.0,
2019-08-23, 02:09:06,VALID,917.966,VALID,0.0,VALID,99.753,VALID,-0.01,VALID,20.159,INVALID,360.0,VALID,0.0,
2019-08-23, 02:10:06,VALID,917.955,VALID,0.0,VALID,99.753,VALID,-0.013,VALID,20.143,INVALID,360.0,VALID,0.0,
2019-08-23, 02:11:07,VALID,917.949,VALID,0.0,VALID,99.774,VALID,-0.016,VALID,20.14,INVALID,360.0,VALID,0.0,
2019-08-23, 02:12:07,VALID,917.936,VALID,0.0,VALID,99.753,VALID,-0.035,VALID,20.136,INVALID,360.0,VALID,0.0,
2019-08-23, 02:13:07,VALID,917.906,VALID,0.0,VALID,99.759,VALID,-0.018,VALID,20.163,INVALID,360.0,VALID,0.0,
2019-08-23, 02:14:07,VALID,917.88,VALID,0.0,VALID,99.762,VALID,-0.013,VALID,20.14,INVALID,360.0,VALID,0.0,
2019-08-23, 02:15:07,VALID,917.87,VALID,0.0,VALID,99.753,VALID,-0.022,VALID,20.056,INVALID,360.0,VALID,0.0,
2019-08-23, 02:16:07,VALID,917.865,VALID,0.0,VALID,99.75,VALID,-0.014,VALID,20.003,INVALID,360.0,VALID,0.0,
2019-08-23, 02:17:07,VALID,917.855,VALID,0.0,VALID,99.746,VALID,0.003,VALID,19.98,INVALID,360.0,VALID,0.0,
2019-08-23, 02:18:07,VALID,917.841,VALID,0.0,VALID,99.762,VALID,-0.008,VALID,19.964,INVALID,360.0,VALID,0.0,
2019-08-23, 02:19:07,VALID,917.877,VALID,0.0,VALID,99.766,VALID,0.009,VALID,19.969,INVALID,360.0,VALID,0.0,
2019-08-23, 02:20:07,VALID,917.858,VALID,0.0,VALID,99.764,VALID,0.011,VALID,19.948,INVALID,360.0,VALID,0.0,
2019-08-23, 02:21:07,VALID,917.841,VALID,0.0,VALID,99.756,VALID,0.015,VALID,19.938,INVALID,360.0,VALID,0.0,
2019-08-23, 02:22:07,VALID,917.844,VALID,0.0,VALID,99.773,VALID,0.027,VALID,19.959,INVALID,360.0,VALID,0.0,
2019-08-23, 02:23:07,VALID,917.84,VALID,0.0,VALID,99.773,VALID,0.038,VALID,19.952,INVALID,360.0,VALID,0.0,
2019-08-23, 02:24:07,VALID,917.859,VALID,0.0,VALID,99.778,VALID,0.027,VALID,19.935,INVALID,360.0,VALID,0.0,
2019-08-23, 02:25:07,VALID,917.849,VALID,0.0,VALID,99.766,VALID,0.012,VALID,19.937,INVALID,360.0,VALID,0.0,
2019-08-23, 02:26:07,VALID,917.841,VALID,0.0,VALID,99.768,VALID,0.028,VALID,19.936,INVALID,360.0,VALID,0.0,
2019-08-23, 02:27:07,VALID,917.807,VALID,0.0,VALID,99.762,VALID,0.029,VALID,19.955,INVALID,360.0,VALID,0.0,
2019-08-23, 02:28:07,VALID,917.78,VALID,0.0,VALID,99.773,VALID,0.017,VALID,19.958,INVALID,360.0,VALID,0.0,
2019-08-23, 02:29:07,VALID,917.754,VALID,0.0,VALID,99.777,VALID,0.026,VALID,19.963,INVALID,360.0,VALID,0.0,
2019-08-23, 02:30:07,VALID,917.758,VALID,0.0,VALID,99.763,VALID,0.02,VALID,19.965,INVALID,360.0,VALID,0.0,
2019-08-23, 02:31:07,VALID,917.754,VALID,0.0,VALID,99.767,VALID,0.015,VALID,19.932,INVALID,360.0,VALID,0.0,
2019-08-23, 02:32:07,VALID,917.763,VALID,0.0,VALID,99.776,VALID,-0.007,VALID,19.899,INVALID,360.0,VALID,0.0,
2019-08-23, 02:33:07,VALID,917.77,VALID,0.0,VALID,99.791,VALID,0.01,VALID,19.891,INVALID,360.0,VALID,0.0,
2019-08-23, 02:34:07,VALID,917.754,VALID,0.0,VALID,99.772,VALID,0.017,VALID,19.894,INVALID,360.0,VALID,0.0,
2019-08-23, 02:35:07,VALID,917.742,VALID,0.0,VALID,99.77,VALID,0.008,VALID,19.883,INVALID,360.0,VALID,0.0,
2019-08-23, 02:36:07,VALID,917.733,VALID,0.0,VALID,99.779,VALID,-0.006,VALID,19.88,INVALID,360.0,VALID,0.0,
2019-08-23, 02:37:07,VALID,917.729,VALID,0.0,VALID,99.791,VALID,0.012,VALID,19.883,INVALID,360.0,VALID,0.0,
2019-08-23, 02:38:07,VALID,917.727,VALID,0.0,VALID,99.775,VALID,0.017,VALID,19.887,INVALID,360.0,VALID,0.0,
2019-08-23, 02:39:07,VALID,917.732,VALID,0.0,VALID,99.769,VALID,0.016,VALID,19.87,INVALID,360.0,VALID,0.0,
2019-08-23, 02:40:07,VALID,917.74,VALID,0.0,VALID,99.783,VALID,0.016,VALID,19.877,INVALID,360.0,VALID,0.0,
2019-08-23, 02:41:07,VALID,917.756,VALID,0.0,VALID,99.791,VALID,0.018,VALID,19.87,INVALID,360.0,VALID,0.0,
2019-08-23, 02:42:07,VALID,917.769,VALID,0.0,VALID,99.787,VALID,0.01,VALID,19.852,INVALID,360.0,VALID,0.0,
2019-08-23, 02:43:07,VALID,917.781,VALID,0.0,VALID,99.771,VALID,-0.007,VALID,19.835,INVALID,360.0,VALID,0.0,
2019-08-23, 02:44:07,VALID,917.783,VALID,0.0,VALID,99.774,VALID,0.008,VALID,19.826,INVALID,360.0,VALID,0.0,
2019-08-23, 02:45:07,VALID,917.796,VALID,0.0,VALID,99.789,VALID,0.004,VALID,19.861,INVALID,360.0,VALID,0.0,
2019-08-23, 02:46:07,VALID,917.789,VALID,0.0,VALID,99.767,VALID,-0.001,VALID,19.898,INVALID,360.0,VALID,0.0,
2019-08-23, 02:47:07,VALID,917.798,VALID,0.0,VALID,99.796,VALID,-0.003,VALID,19.922,INVALID,360.0,VALID,0.0,
2019-08-23, 02:48:07,VALID,917.778,VALID,0.0,VALID,99.782,VALID,0.004,VALID,19.945,INVALID,360.0,VALID,0.0,
2019-08-23, 02:49:07,VALID,917.77,VALID,0.0,VALID,99.794,VALID,0.006,VALID,19.963,INVALID,360.0,VALID,0.0,
2019-08-23, 02:50:07,VALID,917.761,VALID,0.0,VALID,99.781,VALID,-0.012,VALID,20.007,INVALID,360.0,VALID,0.0,
2019-08-23, 02:51:07,VALID,917.766,VALID,0.0,VALID,99.79,VALID,-0.01,VALID,20.018,INVALID,360.0,VALID,0.0,
2019-08-23, 02:52:07,VALID,917.755,VALID,0.0,VALID,99.767,VALID,-0.001,VALID,19.978,INVALID,360.0,VALID,0.0,
2019-08-23, 02:53:07,VALID,917.741,VALID,0.0,VALID,99.782,VALID,-0.002,VALID,19.965,INVALID,360.0,VALID,0.0,
2019-08-23, 02:54:07,VALID,917.693,VALID,0.0,VALID,99.785,VALID,-0.007,VALID,19.973,INVALID,360.0,VALID,0.0,
2019-08-23, 02:55:07,VALID,917.663,VALID,0.0,VALID,99.788,VALID,-0.009,VALID,20.0,INVALID,360.0,VALID,0.0,
2019-08-23, 02:56:07,VALID,917.677,VALID,0.0,VALID,99.773,VALID,-0.009,VALID,19.988,INVALID,360.0,VALID,0.0,
2019-08-23, 02:57:07,VALID,917.686,VALID,0.0,VALID,99.78,VALID,-0.012,VALID,19.988,INVALID,360.0,VALID,0.0,
2019-08-23, 02:58:07,VALID,917.715,VALID,0.0,VALID,99.777,VALID,-0.012,VALID,19.974,INVALID,360.0,VALID,0.0,
2019-08-23, 02:59:07,VALID,917.73,VALID,0.0,VALID,99.772,VALID,0.011,VALID,19.974,INVALID,360.0,VALID,0.0,
2019-08-23, 03:00:07,VALID,917.742,VALID,0.0,VALID,99.774,VALID,-0.007,VALID,19.976,INVALID,360.0,VALID,0.0,
2019-08-23, 03:01:07,VALID,917.736,VALID,0.0,VALID,99.762,VALID,0.019,VALID,19.963,INVALID,360.0,VALID,0.0,
2019-08-23, 03:02:07,VALID,917.728,VALID,0.0,VALID,99.779,VALID,-0.008,VALID,19.947,INVALID,360.0,VALID,0.0,
2019-08-23, 03:03:07,VALID,917.723,VALID,0.0,VALID,99.785,VALID,-0.017,VALID,19.96,INVALID,360.0,VALID,0.0,
2019-08-23, 03:04:07,VALID,917.707,VALID,0.0,VALID,99.777,VALID,-0.005,VALID,19.971,INVALID,360.0,VALID,0.0,
2019-08-23, 03:05:07,VALID,917.698,VALID,0.0,VALID,99.797,VALID,0.002,VALID,19.989,INVALID,360.0,VALID,0.0,
2019-08-23, 03:06:07,VALID,917.678,VALID,0.0,VALID,99.775,VALID,0.004,VALID,19.985,INVALID,360.0,VALID,0.0,
2019-08-23, 03:07:07,VALID,917.681,VALID,0.0,VALID,99.788,VALID,-0.005,VALID,19.986,INVALID,360.0,VALID,0.0,
2019-08-23, 03:08:07,VALID,917.686,VALID,0.0,VALID,99.776,VALID,-0.002,VALID,19.985,INVALID,360.0,VALID,0.0,
2019-08-23, 03:09:07,VALID,917.684,VALID,0.0,VALID,99.768,VALID,0.007,VALID,19.988,INVALID,360.0,VALID,0.0,
2019-08-23, 03:10:07,VALID,917.685,VALID,0.0,VALID,99.784,VALID,0.003,VALID,19.975,INVALID,360.0,VALID,0.0,
2019-08-23, 03:11:07,VALID,917.692,VALID,0.0,VALID,99.786,VALID,-0.023,VALID,19.984,INVALID,360.0,VALID,0.0,
2019-08-23, 03:12:07,VALID,917.719,VALID,0.0,VALID,99.78,VALID,-0.019,VALID,19.977,INVALID,360.0,VALID,0.0,
2019-08-23, 03:13:07,VALID,917.726,VALID,0.0,VALID,99.796,VALID,-0.003,VALID,19.989,INVALID,360.0,VALID,0.0,
2019-08-23, 03:14:07,VALID,917.76,VALID,0.0,VALID,99.774,VALID,-0.012,VALID,19.982,INVALID,360.0,VALID,0.0,
2019-08-23, 03:15:07,VALID,917.743,VALID,0.0,VALID,99.783,VALID,0.003,VALID,19.976,INVALID,360.0,VALID,0.0,
2019-08-23, 03:16:07,VALID,917.71,VALID,0.0,VALID,99.782,VALID,-0.009,VALID,19.981,INVALID,360.0,VALID,0.0,
2019-08-23, 03:17:07,VALID,917.693,VALID,0.0,VALID,99.779,VALID,0.001,VALID,19.985,INVALID,360.0,VALID,0.0,
2019-08-23, 03:18:07,VALID,917.692,VALID,0.0,VALID,99.773,VALID,0.022,VALID,19.963,INVALID,360.0,VALID,0.0,
2019-08-23, 03:19:07,VALID,917.67,VALID,0.0,VALID,99.797,VALID,0.009,VALID,19.959,INVALID,360.0,VALID,0.0,
2019-08-23, 03:20:07,VALID,917.663,VALID,0.0,VALID,99.794,VALID,-0.006,VALID,19.96,INVALID,360.0,VALID,0.0,
2019-08-23, 03:21:07,VALID,917.668,VALID,0.0,VALID,99.794,VALID,0.009,VALID,19.926,INVALID,360.0,VALID,0.0,
2019-08-23, 03:22:07,VALID,917.686,VALID,0.0,VALID,99.78,VALID,-0.002,VALID,19.893,INVALID,360.0,VALID,0.0,
2019-08-23, 03:23:07,VALID,917.704,VALID,0.0,VALID,99.78,VALID,-0.001,VALID,19.861,INVALID,360.0,VALID,0.0,
2019-08-23, 03:24:07,VALID,917.669,VALID,0.0,VALID,99.797,VALID,0.021,VALID,19.855,INVALID,360.0,VALID,0.0,
2019-08-23, 03:25:07,VALID,917.641,VALID,0.0,VALID,99.812,VALID,0.007,VALID,19.865,VALID,62.0,VALID,0.0,
2019-08-23, 03:26:07,VALID,917.622,VALID,0.0,VALID,99.789,VALID,0.018,VALID,19.88,INVALID,360.0,VALID,0.0,
2019-08-23, 03:27:07,VALID,917.618,VALID,0.0,VALID,99.797,VALID,0.011,VALID,19.855,INVALID,360.0,VALID,0.0,
2019-08-23, 03:28:07,VALID,917.595,VALID,0.0,VALID,99.796,VALID,0.008,VALID,19.829,INVALID,360.0,VALID,0.0,
2019-08-23, 03:29:07,VALID,917.579,VALID,0.0,VALID,99.79,VALID,-0.009,VALID,19.816,INVALID,360.0,VALID,0.0,
2019-08-23, 03:30:07,VALID,917.552,VALID,0.0,VALID,99.781,VALID,-0.009,VALID,19.79,INVALID,360.0,VALID,0.0,
2019-08-23, 03:31:07,VALID,917.556,VALID,0.0,VALID,99.78,VALID,0.002,VALID,19.753,INVALID,360.0,VALID,0.0,
2019-08-23, 03:32:07,VALID,917.541,VALID,0.0,VALID,99.794,VALID,-0.006,VALID,19.739,INVALID,360.0,VALID,0.0,
2019-08-23, 03:33:07,VALID,917.529,VALID,0.0,VALID,99.805,VALID,0.006,VALID,19.735,INVALID,360.0,VALID,0.0,
2019-08-23, 03:34:07,VALID,917.514,VALID,0.0,VALID,99.799,VALID,-0.0,VALID,19.702,INVALID,360.0,VALID,0.0,
2019-08-23, 03:35:07,VALID,917.513,VALID,0.0,VALID,99.785,VALID,0.02,VALID,19.667,INVALID,360.0,VALID,0.0,
2019-08-23, 03:36:07,VALID,917.491,VALID,0.0,VALID,99.795,VALID,0.013,VALID,19.632,INVALID,360.0,VALID,0.0,
2019-08-23, 03:37:07,VALID,917.471,VALID,0.0,VALID,99.798,VALID,0.033,VALID,19.629,INVALID,360.0,VALID,0.0,
2019-08-23, 03:38:07,VALID,917.446,VALID,0.0,VALID,99.805,VALID,0.022,VALID,19.608,INVALID,360.0,VALID,0.0,